Location: Barby
(49.5213°N, 4.3131°E)
Time: 05:36:13
(UTC+00:00)

Daily predictions for brighter satellites

Satellite Brightness Start Highest point End
(mag) Time Altitude Azimuth Time Altitude Azimuth Time Altitude Azimuth
Cosmos 1844 Rocket 4.4 00:02:30 10° NW 00:05:29 19° W 00:05:29 19° W
Lacrosse 4 Rocket 4.3 00:05:11 10° NW 00:06:44 12° NNW 00:08:17 10° N
Cosmos 1943 Rocket 3.6 00:01:46 10° NNW 00:06:57 35° NE 00:10:24 18° ESE
SL-16 R/B 3.8 00:06:04 20° W 00:08:48 29° NW 00:13:43 10° NNE
ATLAS 5 CENTAUR R/B 3.7 00:06:45 10° NNW 00:10:45 29° NNE 00:15:32 10° E
RESURS DK-1 4.1 00:13:30 26° ENE 00:13:30 26° ENE 00:15:39 10° NE
Cosmos 972 Rocket 4.2 00:12:33 63° ENE 00:12:33 63° ENE 00:17:03 10° NNE
Okean 3 Rocket 4.4 00:11:24 10° N 00:15:30 45° ENE 00:15:30 45° ENE
Cosmos 1867 3.9 00:10:57 10° NW 00:15:27 54° WNW 00:15:27 54° WNW
NOSS 2-2 (D) 4.0 00:14:17 10° NW 00:18:12 69° NNE 00:18:12 69° NNE
USA 32 4.2 00:20:05 59° WNW 00:20:05 59° WNW 00:25:07 10° N
Cosmos 2344 4.0 00:20:32 10° NW 00:28:45 81° NE 00:40:03 10° SE
Tsikada Rocket 4.0 00:30:35 59° WSW 00:31:19 63° WNW 00:37:27 10° N
USA 215 4.0 00:28:09 10° ENE 00:34:04 35° SE 00:34:07 35° SE
Cosmos 1536 4.2 00:32:16 10° N 00:35:23 33° ENE 00:35:23 33° ENE
Lacrosse 5 3.0 00:35:37 20° WNW 00:38:45 41° NNW 00:43:36 10° ENE
Meteor 1-11 Rocket 4.3 00:35:37 10° N 00:40:59 49° ENE 00:42:35 38° ESE
NOSS 2-3 (C) 4.4 00:37:40 10° NW 00:43:17 79° SW 00:45:10 51° SSE
ATLAS 3B R/B 4.3 00:36:46 10° NW 00:43:58 39° NNE 00:51:14 10° E
NOSS 0 Rocket 4.0 00:45:55 58° SSE 00:46:40 62° ESE 00:52:44 10° NE
NOSS 2-3 (D) 4.4 00:42:45 10° NW 00:48:21 78° SW 00:50:19 49° SSE
NOSS 3-4 (A) 4.3 00:51:31 27° W 00:54:06 42° NNW 01:00:04 10° NE
NOSS 3-4 (C) 4.3 00:51:35 27° W 00:54:08 42° NNW 01:00:07 10° NE
Gbstr 26 Del rocket 3.2 00:57:32 69° NNE 00:57:32 69° NNE 01:01:21 10° ENE
H-2A R/B 3.9 00:54:29 10° NNW 00:57:33 20° WNW 00:57:39 20° WNW
Cosmos 2369 Rocket 4.4 00:55:10 10° NNW 00:59:39 24° NE 01:04:05 10° E
Cosmos 2237 Rocket 2.4 00:59:39 52° SE 01:00:20 56° ESE 01:05:54 10° NE
IDEFIX/ARIANE 42P 3.4 00:57:54 10° NNE 01:02:48 39° E 01:03:55 35° SE
Cosmos 1980 3.8 01:02:36 57° SSE 01:03:17 62° ESE 01:08:53 10° NE
CZ-2D R/B 3.3 01:03:43 10° NNE 01:08:40 35° E 01:10:23 29° SE
USA 267 3.4 01:03:38 10° ESE 01:10:08 75° NNE 01:16:39 10° WNW
Cosmos 1151 Rocket 4.4 01:10:36 29° ESE 01:11:20 30° E 01:15:09 10° NNE
USA 308 4.2 01:14:03 28° E 01:14:03 28° E 01:16:10 10° ENE
Cosmos 2360 Rocket 4.1 01:10:54 14° W 01:14:06 21° NW 01:18:21 10° N
COSMOS 2428 3.1 01:13:37 46° W 01:14:49 55° NW 01:20:26 10° NNE
Meteor 2-9 Rocket 4.3 01:10:17 10° N 01:15:43 69° ENE 01:17:36 42° SE
Cosmos 1743 Rocket 3.8 01:12:36 10° N 01:16:53 61° ENE 01:17:16 58° ESE
Meteor 2-6 Rocket 4.4 01:15:50 54° WSW 01:16:54 63° WNW 01:22:44 10° N
Cosmos 1726 3.7 01:16:26 10° NNW 01:17:56 25° NNW 01:17:56 25° NNW
Resurs 1-4 Rocket 2.8 01:15:38 10° NNE 01:20:43 45° E 01:22:17 35° SE
Cosmos 2219 Rocket 3.7 01:23:12 21° W 01:25:28 28° NW 01:30:15 10° NNE
BREEZE-M DEB (TANK) 4.2 01:27:27 15° E 01:27:27 15° E 01:27:52 10° ENE
IRIDIUM 104 4.3 01:21:14 10° N 01:26:24 61° W 01:26:54 58° WSW
Cosmos 2221 4.1 01:26:50 24° WNW 01:26:50 24° WNW 01:30:05 10° NNW
Cosmos 2278 Rocket 2.7 01:27:27 10° NW 01:32:30 41° WSW 01:32:30 41° WSW
USA 290 3.8 01:36:25 10° N 01:39:27 35° ENE 01:40:17 29° E
COBE Rocket 4.0 01:37:29 10° NNE 01:42:06 64° E 01:43:15 47° SSE
Meteor 2-10 4.1 01:36:26 10° NNW 01:42:10 82° W 01:44:15 41° S
Cosmos 2333 Rocket 4.4 01:38:29 10° WNW 01:42:13 18° NW 01:45:57 10° N
Cosmos 1420 Rocket 3.9 01:36:59 10° NNW 01:42:17 83° WSW 01:44:11 41° SSE
Cosmos 1680 Rocket 3.6 01:42:34 49° S 01:43:59 74° ESE 01:49:18 10° NNE
ADEOS II 2.8 01:39:57 10° NNE 01:45:02 46° E 01:47:24 28° SSE
Cosmos 2195 Rocket 4.5 01:44:51 38° S 01:47:27 84° E 01:53:42 10° N
RESURS DK-1 3.7 01:49:06 27° WNW 01:49:42 28° NW 01:53:15 10° NNE
Meteor 1-28 Rocket 3.9 01:49:06 33° ESE 01:50:18 48° ENE 01:53:50 10° N
Cosmos 1943 Rocket 2.4 01:45:26 10° NW 01:50:54 50° WSW 01:51:51 46° SW
Nadezhda 4 Rocket 4.1 01:50:48 42° SW 01:52:45 60° WNW 01:58:48 10° N
ATLAS 2AS CENTAUR R/B 3.0 01:49:36 35° SSW 01:52:51 64° SE 01:59:54 10° NE
ATLAS 5 CENTAUR R/B 1.9 01:50:12 10° NW 01:55:04 76° SW 02:01:08 10° SSE
Cosmos 2056 Rocket 3.5 01:50:33 10° NNW 01:55:58 76° WSW 01:58:37 31° S
Cosmos 1428 Rocket 4.4 01:53:46 39° SSW 01:56:19 80° W 02:02:34 10° N
SL-16 R/B 2.8 01:54:58 30° SSE 01:57:25 50° ESE 02:02:53 10° NE
Sich 1 3.4 01:57:27 10° NNW 02:01:28 44° W 02:01:28 44° W
Cosmos 1340 Rocket 2.9 02:01:32 50° SSE 02:02:22 65° E 02:06:16 10° NNE
CZ-2C R/B 2.5 02:00:14 35° S 02:02:36 74° WSW 02:07:54 10° NNW
GP-B 3.0 01:58:18 10° N 02:02:44 86° W 02:03:57 48° S
Meteor 1-27 Rocket 3.7 02:01:02 41° SW 02:03:00 68° WNW 02:08:37 10° N
GEOS 3 Rocket 3.5 01:59:37 10° SE 02:04:58 79° SW 02:10:19 10° NW
Okean 1 3.8 02:05:34 39° WNW 02:05:34 39° WNW 02:09:09 10° N
Cosmos 1624 Rocket 3.9 02:00:44 10° NNW 02:05:54 64° WSW 02:08:03 34° S
SL-16 R/B 2.6 02:00:25 11° SSE 02:06:26 82° ENE 02:12:43 10° NNW
ALOS 3.4 02:03:03 10° NNE 02:07:24 39° E 02:10:17 19° SSE
NPP 3.7 02:04:47 10° N 02:10:07 63° WNW 02:12:10 37° SW
Cosmos 1340 2.3 02:07:05 10° N 02:10:32 86° E 02:10:59 65° SSE
NOSS 3-1 (A) 4.2 02:03:35 10° NW 02:10:42 78° NE 02:19:26 10° SE
Cosmos 1805 2.9 02:09:05 10° NNW 02:12:49 75° W 02:13:21 60° SSW
Cosmos 1733 3.9 02:10:47 10° NNW 02:13:33 34° WNW 02:13:33 34° WNW
H-2A R/B 4.2 02:13:15 10° N 02:17:01 36° WNW 02:17:40 34° W
USA 215 3.2 02:10:58 10° ENE 02:17:33 87° NNW 02:21:28 27° WSW
Cosmos 1805 Rocket 4.4 02:14:17 10° NNW 02:18:06 31° W 02:18:06 31° W
Intercosmos 25 Rocket 3.9 02:15:46 10° N 02:19:42 77° E 02:25:50 10° SSE
COSMOS 2441 4.3 02:17:28 10° NNE 02:22:22 77° WNW 02:24:29 34° SSW
Lacrosse 5 3.3 02:17:53 10° WNW 02:22:39 38° N 02:27:26 10° ENE
Cosmos 1666 Rocket 3.5 02:18:32 10° NNW 02:22:59 76° W 02:25:08 30° S
Cosmos 1553 Rocket 4.0 02:17:38 10° N 02:23:55 87° ENE 02:30:02 10° S
NOSS 3-1 (C) 4.1 02:21:25 10° NW 02:28:36 60° SW 02:37:14 10° SSE
MSX 4.2 02:30:03 10° N 02:35:35 49° WNW 02:38:35 26° SW
ATLAS 3B R/B 3.0 02:27:45 10° NW 02:35:38 87° SW 02:43:26 10° SE
MINOTAUR IV R/B 4.4 02:34:17 10° NNW 02:38:45 85° WSW 02:43:11 10° SSE
Cosmos 1656 Rocket 3.5 02:34:30 10° NNW 02:39:54 72° WSW 02:45:18 10° SSE
Cosmos 2026 Rocket 4.3 02:37:38 25° SW 02:41:08 51° WNW 02:47:21 10° N
Cosmos 1470 4.3 02:37:46 10° N 02:41:19 36° ENE 02:44:49 10° SE
IDEFIX/ARIANE 42P 3.4 02:37:35 10° N 02:42:16 35° WNW 02:44:41 23° WSW
Cosmos 1328 Rocket 3.5 02:41:11 27° SSW 02:43:32 73° WNW 02:47:58 10° N
Cosmos 1626 1.7 02:42:32 35° S 02:43:49 89° ENE 02:47:07 10° N
Gbstr 26 Del rocket 3.0 02:39:47 10° WNW 02:44:05 72° NNE 02:47:53 10° E
Cosmos 2369 Rocket 2.1 02:38:43 10° NNW 02:44:21 83° WSW 02:49:56 10° SSE
USA 308 3.1 02:42:30 25° W 02:44:30 55° NNW 02:48:21 10° ENE
Cosmos 2237 Rocket 3.3 02:41:27 19° W 02:44:42 32° NW 02:49:49 10° NNE
Cosmos 1066 Rocket 4.4 02:40:40 14° S 02:45:21 70° E 02:50:56 10° NNE
Cosmos 1092 Rocket 4.4 02:42:40 24° SW 02:46:00 46° WNW 02:51:57 10° N
CZ-2C R/B 3.3 02:43:18 10° N 02:48:29 58° WNW 02:51:58 22° SW
CZ-2D R/B 2.8 02:43:43 10° N 02:48:44 41° WNW 02:51:41 22° WSW
Cosmos 1151 Rocket 4.1 02:47:22 25° WSW 02:48:46 30° WNW 02:52:39 10° N
Cosmos 1975 3.4 02:45:44 10° NNW 02:49:17 36° W 02:50:23 29° SW
Cosmos 921 Rocket 3.5 02:48:29 27° WSW 02:50:25 45° WNW 02:54:41 10° N
SAR-Lupe-1 4.2 02:48:55 10° N 02:52:28 56° WNW 02:54:03 29° SW
Cosmos 1633 Rocket 3.3 02:48:22 10° NNW 02:52:33 46° W 02:55:02 22° SSW
Cosmos 2297 3.8 02:47:17 10° NW 02:52:54 56° WSW 02:58:29 10° S
USA 267 3.5 02:47:14 10° SSE 02:53:25 45° SW 02:59:39 10° WNW
AQUA 4.0 02:49:15 10° N 02:53:53 55° WNW 02:56:42 23° SW
SAR-Lupe-4 3.9 02:53:11 10° N 02:56:39 47° WNW 02:58:13 27° SW
Cosmos 44 4.3 02:53:57 10° NNW 02:58:52 49° NE 03:03:28 10° ESE
Resurs 1-4 Rocket 3.1 02:55:45 10° N 03:00:22 31° WNW 03:03:21 18° WSW
Cosmos 1766 3.1 03:00:27 10° NNW 03:04:05 58° W 03:07:19 13° S
Cosmos 494 Rocket 4.0 03:02:00 20° SW 03:05:32 64° WNW 03:10:39 10° NNE
Iridium 51 3.8 03:05:13 15° S 03:07:52 83° W 03:11:21 10° N
Meteor 2-4 Rocket 4.1 03:04:17 19° SW 03:08:01 47° WNW 03:13:31 10° N
Cosmos 1943 3.7 03:03:47 10° S 03:09:21 58° ESE 03:14:57 10° NE
FENGYUN 3A 4.2 03:05:21 10° N 03:10:28 44° WNW 03:14:21 17° SW
USA 290 4.1 03:11:31 10° WNW 03:13:02 16° W 03:13:02 16° W
Cosmos 1048 Rocket 4.0 03:09:34 16° SSW 03:13:48 73° WNW 03:19:02 10° NNE
Cosmos 2263 4.1 03:08:22 10° NNW 03:13:57 67° WSW 03:19:34 10° SSE
UNK 4.2 03:10:15 12° SSW 03:14:15 39° W 03:18:37 10° NNW
Thor Agena Rocket 4.2 03:09:44 10° NNE 03:14:41 53° ESE 03:19:38 10° S
CZ-2C R/B 2.9 03:15:20 10° NNE 03:20:30 67° ESE 03:25:34 10° S
H-2A R/B 4.2 03:17:43 10° NE 03:21:55 25° E 03:26:11 10° SSE
ADEOS II 3.1 03:19:57 10° N 03:24:28 30° WNW 03:28:17 13° WSW
PAYLOAD A 4.3 03:20:16 10° NNE 03:25:04 62° ESE 03:29:44 10° S
USA 306 4.4 03:22:20 10° S 03:25:15 21° SE 03:28:02 10° E
EO 1 Delta rocket 4.4 03:21:41 10° N 03:26:03 43° WNW 03:30:33 11° SW
Cosmos 883 Rocket 4.4 03:21:54 10° NNW 03:28:02 78° W 03:34:09 10° S
Cosmos 1707 2.6 03:27:57 10° S 03:31:38 89° NW 03:35:20 10° N
Cosmos 1302 Rocket 4.0 03:27:13 10° NNW 03:32:27 88° WSW 03:37:38 10° SSE
IRS-1D 3.8 03:27:34 10° NNE 03:32:45 73° ESE 03:37:59 10° S
CZ-4 R/B 3.8 03:29:02 10° N 03:33:42 64° WNW 03:38:17 10° SSW
Cosmos 1842 3.2 03:32:17 10° SSW 03:35:58 59° WNW 03:39:41 10° N
YAOGAN 6 2.3 03:34:55 10° NNE 03:38:14 89° ESE 03:41:33 10° SSW
ATLAS 5 CENTAUR R/B 3.6 03:35:26 10° WNW 03:38:38 16° WSW 03:42:11 10° SSW
Cosmos 2266 Rocket 4.0 03:33:20 10° SSW 03:39:17 60° WNW 03:45:16 10° N
Cosmos 1603 4.1 03:35:44 10° SSW 03:41:16 66° ESE 03:46:54 10° NNE
S3M 4.3 03:35:40 10° NNW 03:41:34 48° W 03:47:32 10° SSW
SL-16 R/B 3.1 03:36:50 11° WSW 03:41:44 35° NW 03:46:56 10° NNE
SL-08 ROCKET BODY 4.5 03:36:56 10° SSW 03:42:50 64° WNW 03:48:54 10° N
CZ-2C R/B 4.5 03:41:58 10° WSW 03:43:45 12° W 03:45:32 10° WNW
ATLAS 2AS CENTAUR R/B 3.5 03:37:09 10° WSW 03:44:09 45° NNW 03:50:52 10° NE
Cosmos 1452 Rocket 4.2 03:39:33 10° NW 03:44:10 32° WSW 03:48:44 10° SSW
ALOS 3.3 03:40:31 10° N 03:44:30 29° WNW 03:48:28 10° WSW
Cosmos 1515 Rocket 4.2 03:40:32 10° SW 03:44:40 38° WNW 03:48:49 10° N
Cosmos 1869 Rocket 3.5 03:42:32 10° NNW 03:46:51 64° W 03:51:06 10° S
Envisat 3.2 03:44:24 10° N 03:49:23 56° WNW 03:54:20 10° SSW
Cosmos 1758 4.2 03:46:23 10° N 03:50:14 51° ENE 03:53:59 10° SSE
SL-16 R/B 3.8 03:46:18 10° SW 03:50:45 20° W 03:55:14 10° NW
USA 215 4.0 03:54:00 10° ENE 04:00:17 51° N 04:06:33 10° W
CZ-3 R/B 4.3 03:53:27 10° SW 04:10:54 25° S 04:18:14 10° SE
